Showing default

COSMOS 82, 1572

Orbit data source: Space-Track

COSMOS 82, 1572 is a payload satellite owned by OKB-10 (CIS) in LEO that was launched on Fri, 03 Sep 1965 UTC via a KOSMOS 65S3 launch vehicle from the Tyuratam Missile And Space Complex (TTMTR). Payload-class satellites include a variety of spacecraft equipped with specific instruments for various scientific and technological missions. These include communications satellites like Starlink; space stations such as the ISS; scientific satellites like the Hubble; Earth observation satellites from companies like Planet Labs, Umbra, and HawkEye 360; GPS; miniature CubeSats for education and research; and military/defense satellites.

Loading next visibility...
Identifier
1572, 1965-070C
Orbit
LEO
Country
Flag of CISCIS
Related business
Manufacturer
OKB-10
Mission
Spacecraft
Bus & Motor
STRELA-1 11F610, Unknown motor
Mass
50 kg wet, 50 kg dry
Launch date (UTC)
1965-09-03 (60 years ago)
Launch vehicle
KOSMOS 65S3
Launch site
Tyuratam Missile And Space Complex (TTMTR)
Object type
Payload
Rocket body
Debris
Shape & HBR
Unknown
Radar Cross Section
Medium (>0.1 m² and <1 m²)

Expand to show TLE details & history
Last TLE update: 22 hours ago

TLE from 22 hours ago
0 COSMOS 82
1 01572U 65070C   26033.10551611 -.00000065  00000-0  20124-3 0  9991
2 01572  56.0571 258.8320 0076671  79.7261  86.7069 12.45121948747379
Epoch: 2026-02-02T02:31Z
TLE epoch observation values (Epoch: 2026-02-02T02:31:56.591Z)
Latitude
10.48243°
Longitude
-98.57779°
Altitude
1,482.273 km
Speed
7.125 km/s
True Right ascension
04h 46m 51s
True Declination
10° 25' 36"
Sunlit
Object was in daylight at epoch
Visualization orbit readout
Latitude
Unknown
Longitude
Unknown
Altitude
Unknown
Speed
Unknown
Apparent Right ascension
Unknown
Apparent Declination
Unknown
Sunlit
N/A
Visualization observer readout
Local Sidereal Time
02:28:11
Azimuth
Unknown
Elevation
Unknown
Doppler factor
Unknown
Orbital elements
Apogee altitude
1,545.075 km
Perigee altitude
1,424.503 km
Semi-major axis
7,862.926 km
Eccentricity
0.00767
Inclination
56.0571°
RAAN
258.832°
Arg. of periapsis
79.7261°
True anomaly
87.58448°
Mean anomaly
86.7069°
Eccentric anomaly
87.14565°
Mean motion
3.11291 °/min
Orbital period
115.65 mins
BSTAR
0.00020124
Loading maneuver chart data...
Computing Atmospheric mass density...
Loading historical data...
Loading historical data...
Loading historical data...
Loading historical data...
Loading historical data...
Loading historical data...
Loading historical data...
Other satellites on launch #70 in the year 1965 (1965-09-03 UTC)

Documentation

Showing up to 5 results
|